Time,TemperatureF,DewpointF,PressureIn,WindDirection,WindDirectionDegrees,WindSpeedMPH,WindSpeedGustMPH,Humidity,HourlyPrecipIn,Conditions,Clouds,dailyrainin,SolarRadiationWatts/m^2,SoftwareType,DateUTC
2013-08-04 00:02:00,59.0,58.0,-100.00,SE,142,5.0,13.0,95,0.00,,,0.55,0.000000,,2013-08-04 06:02:00,
2013-08-04 00:12:00,59.0,58.0,-100.00,SE,142,5.0,13.0,95,0.00,,,0.55,0.000000,,2013-08-04 06:12:00,
2013-08-04 00:22:00,59.0,58.0,-100.00,SE,142,5.0,13.0,95,0.00,,,0.55,0.000000,,2013-08-04 06:22:00,
2013-08-04 00:52:00,57.0,57.0,-100.00,South,176,2.0,8.0,99,0.00,,,0.55,0.000000,,2013-08-04 06:52:00,
2013-08-04 01:02:00,57.0,57.0,-100.00,South,176,2.0,8.0,99,0.00,,,0.55,0.000000,,2013-08-04 07:02:00,
2013-08-04 01:12:00,57.0,57.0,-100.00,South,176,2.0,8.0,99,0.00,,,0.55,0.000000,,2013-08-04 07:12:00,
2013-08-04 01:22:00,57.0,57.0,-100.00,South,176,2.0,8.0,99,0.00,,,0.55,0.000000,,2013-08-04 07:22:00,
2013-08-04 01:52:00,55.0,55.0,-100.00,South,185,3.0,5.0,99,0.00,,,0.55,0.000000,,2013-08-04 07:52:00,
2013-08-04 02:02:00,55.0,55.0,-100.00,South,185,3.0,5.0,99,0.00,,,0.55,0.000000,,2013-08-04 08:02:00,
2013-08-04 02:12:00,55.0,55.0,-100.00,South,185,3.0,5.0,99,0.00,,,0.55,0.000000,,2013-08-04 08:12:00,
2013-08-04 02:22:00,55.0,55.0,-100.00,South,185,3.0,5.0,99,0.00,,,0.55,0.000000,,2013-08-04 08:22:00,
2013-08-04 02:53:00,57.0,57.0,-100.00,South,171,4.0,8.0,99,0.00,,,0.55,0.000000,,2013-08-04 08:53:00,
2013-08-04 03:02:00,57.0,57.0,-100.00,South,171,4.0,8.0,99,0.00,,,0.55,0.000000,,2013-08-04 09:02:00,
2013-08-04 03:12:00,57.0,57.0,-100.00,South,171,4.0,8.0,99,0.00,,,0.55,0.000000,,2013-08-04 09:12:00,
2013-08-04 03:22:00,57.0,57.0,-100.00,South,171,4.0,8.0,99,0.00,,,0.55,0.000000,,2013-08-04 09:22:00,
2013-08-04 03:52:00,58.0,58.0,-100.00,South,190,4.0,10.0,99,0.00,,,0.55,0.000000,,2013-08-04 09:52:00,
2013-08-04 04:02:00,58.0,58.0,-100.00,South,190,4.0,10.0,99,0.00,,,0.55,0.000000,,2013-08-04 10:02:00,
2013-08-04 04:12:00,58.0,58.0,-100.00,South,190,4.0,10.0,99,0.00,,,0.55,0.000000,,2013-08-04 10:12:00,
2013-08-04 04:22:00,58.0,58.0,-100.00,South,190,4.0,10.0,99,0.00,,,0.55,0.000000,,2013-08-04 10:22:00,
2013-08-04 04:53:00,59.0,59.0,-100.00,South,176,6.0,11.0,99,0.00,,,0.55,0.000000,,2013-08-04 10:53:00,
2013-08-04 05:02:00,59.0,59.0,-100.00,South,176,6.0,11.0,99,0.00,,,0.55,0.000000,,2013-08-04 11:02:00,
2013-08-04 05:12:00,59.0,59.0,-100.00,South,176,6.0,11.0,99,0.00,,,0.55,0.000000,,2013-08-04 11:12:00,
2013-08-04 05:22:00,59.0,59.0,-100.00,South,176,6.0,11.0,99,0.00,,,0.55,0.000000,,2013-08-04 11:22:00,
2013-08-04 05:53:00,59.0,59.0,-100.00,SSW,194,2.0,11.0,99,0.00,,,0.55,0.000000,,2013-08-04 11:53:00,
2013-08-04 06:02:00,59.0,59.0,-100.00,SSW,194,2.0,11.0,99,0.00,,,0.55,0.000000,,2013-08-04 12:02:00,
2013-08-04 06:12:00,59.0,59.0,-100.00,SSW,194,2.0,11.0,99,0.00,,,0.55,0.000000,,2013-08-04 12:12:00,
2013-08-04 06:22:00,59.0,59.0,-100.00,SSW,194,2.0,11.0,99,0.00,,,0.55,0.000000,,2013-08-04 12:22:00,
2013-08-04 06:53:00,58.0,58.0,-100.00,WSW,257,1.0,5.0,99,0.00,,,0.55,14.000000,,2013-08-04 12:53:00,
2013-08-04 07:02:00,58.0,58.0,-100.00,WSW,257,1.0,5.0,99,0.00,,,0.55,14.000000,,2013-08-04 13:02:00,
2013-08-04 07:12:00,58.0,58.0,-100.00,WSW,257,1.0,5.0,99,0.00,,,0.55,14.000000,,2013-08-04 13:12:00,
2013-08-04 07:22:00,58.0,58.0,-100.00,WSW,257,1.0,5.0,99,0.00,,,0.55,14.000000,,2013-08-04 13:22:00,
2013-08-04 07:52:00,61.0,61.0,-100.00,SW,232,0.0,5.0,99,0.00,,,0.55,53.000000,,2013-08-04 13:52:00,
2013-08-04 08:02:00,61.0,61.0,-100.00,SW,232,0.0,5.0,99,0.00,,,0.55,53.000000,,2013-08-04 14:02:00,
2013-08-04 08:12:00,61.0,61.0,-100.00,SW,232,0.0,5.0,99,0.00,,,0.55,53.000000,,2013-08-04 14:12:00,
2013-08-04 08:22:00,61.0,61.0,-100.00,SW,232,0.0,5.0,99,0.00,,,0.55,53.000000,,2013-08-04 14:22:00,
2013-08-04 08:53:00,62.0,61.0,-100.00,WSW,245,0.0,3.0,96,0.00,,,0.55,115.000000,,2013-08-04 14:53:00,
2013-08-04 09:02:00,62.0,61.0,-100.00,WSW,245,0.0,3.0,96,0.00,,,0.55,115.000000,,2013-08-04 15:02:00,
2013-08-04 09:12:00,62.0,61.0,-100.00,WSW,245,0.0,3.0,96,0.00,,,0.55,115.000000,,2013-08-04 15:12:00,
2013-08-04 09:22:00,62.0,61.0,-100.00,WSW,245,0.0,3.0,96,0.00,,,0.55,115.000000,,2013-08-04 15:22:00,
2013-08-04 09:53:00,63.0,62.0,-100.00,NNE,14,3.0,7.0,95,0.00,,,0.55,179.000000,,2013-08-04 15:53:00,
2013-08-04 10:02:00,63.0,62.0,-100.00,NNE,14,3.0,7.0,95,0.00,,,0.55,179.000000,,2013-08-04 16:02:00,
2013-08-04 10:12:00,63.0,62.0,-100.00,NNE,14,3.0,7.0,95,0.00,,,0.55,179.000000,,2013-08-04 16:12:00,
2013-08-04 10:22:00,63.0,62.0,-100.00,NNE,14,3.0,7.0,95,0.00,,,0.55,179.000000,,2013-08-04 16:22:00,
2013-08-04 10:53:00,66.0,61.0,-100.00,NNE,20,2.0,6.0,84,0.00,,,0.55,338.000000,,2013-08-04 16:53:00,
2013-08-04 11:02:00,66.0,61.0,-100.00,NNE,20,2.0,6.0,84,0.00,,,0.55,338.000000,,2013-08-04 17:02:00,
2013-08-04 11:12:00,66.0,61.0,-100.00,NNE,20,2.0,6.0,84,0.00,,,0.55,338.000000,,2013-08-04 17:12:00,
2013-08-04 11:22:00,66.0,61.0,-100.00,NNE,20,2.0,6.0,84,0.00,,,0.55,338.000000,,2013-08-04 17:22:00,
2013-08-04 11:53:00,69.0,61.0,-100.00,NW,317,1.0,5.0,77,0.00,,,0.55,300.000000,,2013-08-04 17:53:00,
2013-08-04 12:02:00,69.0,61.0,-100.00,NW,317,1.0,5.0,77,0.00,,,0.55,300.000000,,2013-08-04 18:02:00,
2013-08-04 12:12:00,69.0,61.0,-100.00,NW,317,1.0,5.0,77,0.00,,,0.55,300.000000,,2013-08-04 18:12:00,
2013-08-04 12:22:00,69.0,61.0,-100.00,NW,317,1.0,5.0,77,0.00,,,0.55,300.000000,,2013-08-04 18:22:00,
2013-08-04 12:52:00,74.0,64.0,-100.00,WNW,302,2.0,6.0,70,0.00,,,0.55,549.000000,,2013-08-04 18:52:00,
2013-08-04 13:02:00,74.0,64.0,-100.00,WNW,302,2.0,6.0,70,0.00,,,0.55,549.000000,,2013-08-04 19:02:00,
2013-08-04 13:12:00,74.0,64.0,-100.00,WNW,302,2.0,6.0,70,0.00,,,0.55,549.000000,,2013-08-04 19:12:00,
2013-08-04 13:22:00,74.0,64.0,-100.00,WNW,302,2.0,6.0,70,0.00,,,0.55,549.000000,,2013-08-04 19:22:00,
2013-08-04 13:53:00,77.0,64.0,-100.00,NW,311,5.0,9.0,64,0.00,,,0.55,681.000000,,2013-08-04 19:53:00,
2013-08-04 14:02:00,77.0,64.0,-100.00,NW,311,5.0,9.0,64,0.00,,,0.55,681.000000,,2013-08-04 20:02:00,
2013-08-04 14:12:00,77.0,64.0,-100.00,NW,311,5.0,9.0,64,0.00,,,0.55,681.000000,,2013-08-04 20:12:00,
2013-08-04 14:22:00,77.0,64.0,-100.00,NW,311,5.0,9.0,64,0.00,,,0.55,681.000000,,2013-08-04 20:22:00,
2013-08-04 14:53:00,79.0,63.0,-100.00,North,9,5.0,11.0,58,0.00,,,0.55,986.000000,,2013-08-04 20:53:00,
2013-08-04 15:02:00,79.0,63.0,-100.00,North,9,5.0,11.0,58,0.00,,,0.55,986.000000,,2013-08-04 21:02:00,
2013-08-04 15:12:00,79.0,63.0,-100.00,North,9,5.0,11.0,58,0.00,,,0.55,986.000000,,2013-08-04 21:12:00,
2013-08-04 15:22:00,79.0,63.0,-100.00,North,9,5.0,11.0,58,0.00,,,0.55,986.000000,,2013-08-04 21:22:00,
2013-08-04 16:53:00,82.0,57.0,-100.00,North,349,6.0,13.0,43,-99.99,,,0.55,689.000000,,2013-08-04 22:53:00,
2013-08-04 17:02:00,82.0,57.0,-100.00,North,349,6.0,13.0,43,-99.99,,,0.55,689.000000,,2013-08-04 23:02:00,
2013-08-04 17:12:00,82.0,57.0,-100.00,North,349,6.0,13.0,43,-99.99,,,0.55,689.000000,,2013-08-04 23:12:00,
2013-08-04 17:22:00,82.0,57.0,-100.00,North,349,6.0,13.0,43,-99.99,,,0.55,689.000000,,2013-08-04 23:22:00,
2013-08-04 17:53:00,81.0,55.0,-100.00,North,352,5.0,12.0,41,0.00,,,0.55,622.000000,,2013-08-04 23:53:00,
2013-08-04 18:02:00,81.0,55.0,-100.00,North,352,5.0,12.0,41,0.00,,,0.55,622.000000,,2013-08-05 00:02:00,
2013-08-04 18:12:00,81.0,55.0,-100.00,North,352,5.0,12.0,41,0.00,,,0.55,622.000000,,2013-08-05 00:12:00,
2013-08-04 18:22:00,81.0,55.0,-100.00,North,352,5.0,12.0,41,0.00,,,0.55,622.000000,,2013-08-05 00:22:00,
2013-08-04 18:53:00,82.0,58.0,-100.00,North,353,3.0,11.0,44,0.00,,,0.55,448.000000,,2013-08-05 00:53:00,
2013-08-04 19:02:00,82.0,58.0,-100.00,North,353,3.0,11.0,44,0.00,,,0.55,448.000000,,2013-08-05 01:02:00,
2013-08-04 19:12:00,82.0,58.0,-100.00,North,353,3.0,11.0,44,0.00,,,0.55,448.000000,,2013-08-05 01:12:00,
2013-08-04 19:22:00,82.0,58.0,-100.00,North,353,3.0,11.0,44,0.00,,,0.55,448.000000,,2013-08-05 01:22:00,
2013-08-04 19:52:00,75.0,52.0,-100.00,NNW,337,3.0,8.0,44,0.00,,,0.55,166.000000,,2013-08-05 01:52:00,
2013-08-04 20:02:00,75.0,52.0,-100.00,NNW,337,3.0,8.0,44,0.00,,,0.55,166.000000,,2013-08-05 02:02:00,
2013-08-04 20:12:00,75.0,52.0,-100.00,NNW,337,3.0,8.0,44,0.00,,,0.55,166.000000,,2013-08-05 02:12:00,
2013-08-04 20:22:00,75.0,52.0,-100.00,NNW,337,3.0,8.0,44,0.00,,,0.55,166.000000,,2013-08-05 02:22:00,
2013-08-04 21:02:00,68.0,54.0,-100.00,NW,319,3.0,7.0,60,0.00,,,0.55,21.000000,,2013-08-05 03:02:00,
2013-08-04 21:12:00,68.0,54.0,-100.00,NW,319,3.0,7.0,60,0.00,,,0.55,21.000000,,2013-08-05 03:12:00,
2013-08-04 21:22:00,68.0,54.0,-100.00,NW,319,3.0,7.0,60,0.00,,,0.55,21.000000,,2013-08-05 03:22:00,
2013-08-04 21:53:00,63.0,54.0,-100.00,NE,38,0.0,6.0,73,0.00,,,0.02,1.000000,,2013-08-05 03:53:00,
2013-08-04 22:02:00,63.0,54.0,-100.00,NE,38,0.0,6.0,73,0.00,,,0.02,1.000000,,2013-08-05 04:02:00,
2013-08-04 22:12:00,63.0,54.0,-100.00,NE,38,0.0,6.0,73,0.00,,,0.02,1.000000,,2013-08-05 04:12:00,
2013-08-04 22:22:00,63.0,54.0,-100.00,NE,38,0.0,6.0,73,0.00,,,0.02,1.000000,,2013-08-05 04:22:00,
2013-08-04 22:52:00,63.0,56.0,-100.00,NNW,343,2.0,4.0,78,0.00,,,0.00,0.000000,,2013-08-05 04:52:00,
2013-08-04 23:02:00,63.0,56.0,-100.00,NNW,343,2.0,4.0,78,0.00,,,0.00,0.000000,,2013-08-05 05:02:00,
2013-08-04 23:12:00,63.0,56.0,-100.00,NNW,343,2.0,4.0,78,0.00,,,0.00,0.000000,,2013-08-05 05:12:00,
2013-08-04 23:22:00,63.0,56.0,-100.00,NNW,343,2.0,4.0,78,0.00,,,0.00,0.000000,,2013-08-05 05:22:00,
2013-08-04 23:43:00,62.0,58.0,-100.00,West,267,1.0,3.0,88,0.00,,,0.00,0.000000,,2013-08-05 05:43:00,
2013-08-04 23:53:00,62.0,58.0,-100.00,West,267,1.0,3.0,88,0.00,,,0.00,0.000000,,2013-08-05 05:53:00,